EW8518 Weather Reports


time (UTC)temp
C
wind
direction
speed
KPH
gust
KPH
rain 1hr
cm
rain 24hr
cm
rain mn
cm
humidity
%
barometer
mb
20260507134522 20 109 9.7 20.9 0.00 0.00 0.00 66 1010.7
20260507133004 20 119 14.5 24.1 0.00 0.00 0.00 66 1011.0
20260507131509 20 111 8.0 24.1 0.00 0.00 0.00 65 1011.0
20260507130103 21 132 12.9 20.9 0.00 0.00 0.00 65 1011.3
20260507124551 20 129 11.3 24.1 0.00 0.00 0.00 68 1011.2
20260507123028 20 112 16.1 27.4 0.00 0.00 0.00 66 1011.3
20260507121528 20 125 12.9 27.4 0.00 0.00 0.00 66 1011.3
20260507120023 20 121 12.9 25.7 0.00 0.00 0.00 65 1011.2
20260507114509 20 130 9.7 22.5 0.00 0.00 0.00 70 1011.2
20260507113052 20 126 12.9 24.1 0.00 0.00 0.00 66 1011.3
20260507111551 20 121 11.3 20.9 0.00 0.00 0.00 64 1011.5
20260507110033 20 132 14.5 27.4 0.00 0.00 0.00 62 1011.7
20260507104533 20 133 16.1 27.4 0.00 0.00 0.00 65 1011.6
20260507103015 20 121 12.9 25.7 0.00 0.00 0.00 65 1011.7
20260507101516 20 126 8.0 22.5 0.00 0.00 0.00 65 1011.7
20260507100057 20 128 12.9 24.1 0.00 0.00 0.00 63 1011.8
20260507094556 20 125 9.7 20.9 0.00 0.00 0.00 66 1011.7
20260507093040 21 36 3.2 9.7 0.00 0.00 0.00 65 1011.7
20260507091537 21 22 4.8 12.9 0.00 0.00 0.00 66 1011.6
20260507090022 21 19 6.4 14.5 0.00 0.00 0.00 63 1011.4
20260507084517 22 242 1.6 11.3 0.00 0.00 0.00 61 1011.3
20260507083058 21 235 1.6 12.9 0.00 0.00 0.00 48 1011.1
20260507081600 21 163 1.6 12.9 0.00 0.00 0.00 49 1011.2
20260507080034 20 165 4.8 11.3 0.00 0.00 0.00 52 1011.2
20260507074551 20 236 3.2 12.9 0.00 0.00 0.00 53 1011.3
20260507073012 20 186 1.6 11.3 0.00 0.00 0.00 58 1011.3
20260507071508 18 208 1.6 16.1 0.00 0.00 0.00 63 1011.2
20260507070049 18 204 8.0 14.5 0.00 0.00 0.00 67 1011.2
20260507064546 18 225 1.6 16.1 0.00 0.00 0.00 70 1011.1
20260507063034 18 240 3.2 14.5 0.00 0.00 0.00 71 1011.1
20260507061533 18 232 1.6 8.0 0.00 0.00 0.00 72 1011.0
20260507060029 17 232 1.6 9.7 0.00 0.00 0.00 74 1011.0
20260507054526 17 235 1.6 8.0 0.00 0.00 0.00 75 1010.8
20260507053021 16 236 0.0 3.2 0.00 0.00 0.00 79 1010.7
20260507051518 15 236 0.0 4.8 0.00 0.00 0.00 83 1010.5
20260507050025 14 235 0.0 4.8 0.00 0.00 0.00 84 1010.3
20260507044516 13 235 0.0 3.2 0.00 0.00 0.00 83 1010.3
20260507043056 13 235 0.0 1.6 0.00 0.00 0.00 83 1010.2
20260507041602 13 235 0.0 0.0 0.00 0.00 0.00 83 1010.2
20260507040044 13 235 0.0 3.2 0.00 0.00 0.00 82 1010.1
20260507034542 14 235 0.0 4.8 0.00 0.00 0.00 81 1010.2
20260507033042 14 235 3.2 8.0 0.00 0.00 0.00 82 1010.2
20260507031546 14 235 0.0 3.2 0.00 0.00 0.00 81 1010.2
20260507030047 15 235 0.0 3.2 0.00 0.00 0.00 80 1010.3
20260507024541 15 235 1.6 6.4 0.00 0.00 0.00 80 1010.1
20260507023033 15 236 0.0 11.3 0.00 0.00 0.00 80 1010.2
20260507021532 15 248 3.2 12.9 0.00 0.00 0.00 81 1010.1
20260507020010 15 259 6.4 20.9 0.00 0.00 0.00 81 1010.0
20260507014508 15 279 1.6 6.4 0.00 0.13 0.00 81 1010.0
20260507013049 15 274 1.6 17.7 0.00 0.13 0.00 81 1009.8
20260507011549 15 273 1.6 17.7 0.00 0.13 0.00 81 1009.8
20260507010033 15 251 1.6 12.9 0.00 0.13 0.00 81 1009.7
20260507004530 15 267 6.4 17.7 0.00 0.18 0.00 82 1009.7
20260507003013 15 260 4.8 17.7 0.00 0.18 0.00 81 1009.8
20260507001519 15 262 8.0 19.3 0.00 0.18 0.00 81 1009.8
20260507000054 15 238 4.8 17.7 0.00 0.18 0.00 81 1009.9
20260506234554 15 254 8.0 16.1 0.00 0.18 0.00 81 1009.9
20260506233041 15 262 4.8 24.1 0.00 0.18 0.00 80 1010.0
20260506231536 15 273 9.7 20.9 0.00 0.18 0.00 81 1009.9
20260506230018 15 259 4.8 16.1 0.00 0.18 0.00 82 1010.0
20260506224517 15 259 8.0 17.7 0.00 0.25 0.00 81 1010.0
20260506223117 15 261 4.8 19.3 0.00 0.25 0.00 81 1010.0
20260506221559 15 248 6.4 16.1 0.00 0.25 0.00 82 1010.1
20260506220059 15 246 4.8 14.5 0.00 0.25 0.00 83 1010.0
20260506214539 15 248 6.4 16.1 0.00 0.30 0.00 82 1009.9
20260506213038 15 253 8.0 16.1 0.00 0.30 0.00 82 1009.9
20260506211520 16 256 6.4 22.5 0.00 0.30 0.00 81 1009.8
20260506210018 16 247 9.7 20.9 0.00 0.30 0.00 81 1009.8
20260506204600 16 265 9.7 20.9 0.00 0.53 0.00 80 1009.7
20260506203059 16 234 8.0 29.0 0.00 0.53 0.00 78 1009.7
20260506201540 16 239 9.7 20.9 0.00 0.53 0.00 76 1009.6
20260506200038 16 238 6.4 16.1 0.00 0.53 0.00 74 1009.3
20260506194520 16 219 4.8 14.5 0.00 0.53 0.00 73 1009.1
20260506193017 16 205 1.6 12.9 0.00 0.53 0.00 70 1009.0
20260506191559 16 199 8.0 22.5 0.00 0.53 0.00 69 1008.7
20260506184541 16 234 4.8 20.9 0.00 0.53 0.00 66 1008.2
20260506183039 16 238 8.0 24.1 0.00 0.53 0.00 68 1007.9
20260506181522 17 247 6.4 19.3 0.00 0.53 0.00 68 1007.9
20260506180022 17 236 6.4 16.1 0.00 0.53 0.00 67 1007.9
20260506174504 17 250 6.4 17.7 0.00 0.53 0.00 65 1007.8
20260506173003 17 250 9.7 27.4 0.00 0.53 0.00 65 1007.6
20260506171549 18 271 12.9 30.6 0.00 0.53 0.00 63 1007.7
20260506170057 18 217 6.4 24.1 0.00 0.53 0.00 62 1007.6
20260506164532 19 246 11.3 24.1 0.00 0.53 0.00 61 1007.7
20260506163053 20 242 12.9 24.1 0.00 0.53 0.00 61 1007.9
20260506161530 20 235 11.3 29.0 0.00 0.53 0.00 62 1008.0
20260506160027 20 267 11.3 27.4 0.00 0.53 0.00 64 1008.1
20260506154526 19 213 11.3 19.3 0.00 0.53 0.00 68 1008.1
20260506153024 20 248 11.3 24.1 0.00 0.53 0.00 70 1008.2
20260506151524 19 238 9.7 22.5 0.00 0.53 0.00 72 1008.2
20260506150027 20 250 9.7 25.7 0.00 0.53 0.00 72 1008.3
20260506144505 20 208 8.0 22.5 0.00 0.53 0.00 72 1008.3
20260506143005 20 212 9.7 27.4 0.00 0.53 0.00 73 1008.3
20260506141547 20 205 8.0 20.9 0.00 0.53 0.00 74 1008.2
20260506140048 20 233 9.7 24.1 0.00 0.53 0.00 73 1008.2